Location: Erfurt
(50.9688°N, 11.0193°E)
Time: 06:55:56
(UTC+01:00)

Tiangong 1 - Visible Passes

Search period start: 25 November 2017 00:00
Search period end: 05 December 2017 00:00
Orbit: 283 x 307 km, 42.8° (Epoch: 24 November)

Date Brightness Start Highest point End Pass type
(mag) Time Alt. Az. Time Alt. Az. Time Alt. Az.
28 Nov 3.4 18:07:03 10° S 18:07:54 11° SSE 18:07:57 11° SSE visible
29 Nov 3.2 18:12:13 10° SSW 18:13:34 13° S 18:13:34 13° S visible
30 Nov 3.2 18:17:39 10° SW 18:19:03 14° S 18:19:03 14° S visible
01 Dec 3.3 18:23:08 10° SW 18:24:26 13° S 18:24:26 13° S visible
02 Dec 3.4 16:54:20 10° SSW 16:55:45 14° S 16:57:09 10° SE visible
02 Dec 3.6 18:28:48 10° SW 18:29:44 12° SSW 18:29:44 12° SSW visible
03 Dec 3.4 16:59:23 10° SW 17:00:53 14° S 17:02:22 10° SE visible
04 Dec 3.5 17:04:32 10° SW 17:05:53 13° S 17:07:14 10° SSE visible
